contact:dominique.lefevre@mio.osupytheas.fr, maurice.libes@osupytheas.fr, didier.mallarino@osupytheas.fr
Project:EMSO http://www.emso-fr.org/EMSO-France
Depth: 2436.0 m
Title:EMSO Ligure Ouest : Data MII capteur MICROCAT
DateTime_Computer,Latitude,Longitude,Temperature,Conductivity,Pressure,DateTime_Instrument
DateTime_Computer,Latitude,Longitude,degC,S m-1,dbar,DateTime_Instrument
2020-07-22T00:00:41Z,42.805,6.029,13.2991,4.60024,2470.156,2020-7-22T02:01:28Z
2020-07-22T00:03:44Z,42.805,6.029,13.2986,4.60011,2470.147,2020-7-22T02:04:32Z
2020-07-22T00:06:48Z,42.805,6.029,13.3000,4.60021,2470.133,2020-7-22T02:07:35Z
2020-07-22T00:09:51Z,42.805,6.029,13.2996,4.60009,2470.133,2020-7-22T02:10:38Z
2020-07-22T00:12:54Z,42.805,6.029,13.2993,4.60021,2470.133,2020-7-22T02:13:41Z
2020-07-22T00:15:58Z,42.805,6.029,13.2992,4.60028,2470.156,2020-7-22T02:16:45Z
2020-07-22T00:19:01Z,42.805,6.029,13.2984,4.60019,2470.156,2020-7-22T02:19:48Z
2020-07-22T00:22:04Z,42.805,6.029,13.2987,4.60026,2470.147,2020-7-22T02:22:51Z
2020-07-22T00:25:07Z,42.805,6.029,13.2983,4.60028,2470.147,2020-7-22T02:25:54Z
2020-07-22T00:28:10Z,42.805,6.029,13.2993,4.60044,2470.133,2020-7-22T02:28:58Z
2020-07-22T00:31:14Z,42.805,6.029,13.3005,4.60036,2470.133,2020-7-22T02:32:01Z
2020-07-22T00:34:17Z,42.805,6.029,13.3000,4.60028,2470.133,2020-7-22T02:35:04Z
2020-07-22T00:37:20Z,42.805,6.029,13.2997,4.60046,2470.147,2020-7-22T02:38:07Z
2020-07-22T00:40:23Z,42.805,6.029,13.2997,4.60029,2470.147,2020-7-22T02:41:10Z
2020-07-22T00:43:26Z,42.805,6.029,13.3000,4.60021,2470.11,2020-7-22T02:44:14Z
2020-07-22T00:46:30Z,42.805,6.029,13.3013,4.60031,2470.1,2020-7-22T02:47:17Z
2020-07-22T00:49:33Z,42.805,6.029,13.3004,4.60025,2470.124,2020-7-22T02:50:20Z
2020-07-22T00:52:36Z,42.805,6.029,13.2992,4.60031,2470.133,2020-7-22T02:53:23Z
2020-07-22T00:55:39Z,42.805,6.029,13.2995,4.60056,2470.133,2020-7-22T02:56:27Z
2020-07-22T00:58:43Z,42.805,6.029,13.3003,4.60049,2470.1,2020-7-22T02:59:30Z
2020-07-22T01:01:46Z,42.805,6.029,13.3006,4.60045,2470.124,2020-7-22T03:02:33Z
2020-07-22T01:04:49Z,42.805,6.029,13.2994,4.60037,2470.1,2020-7-22T03:05:36Z
2020-07-22T01:07:52Z,42.805,6.029,13.2988,4.60045,2470.147,2020-7-22T03:08:40Z
2020-07-22T01:10:56Z,42.805,6.029,13.2998,4.60017,2470.124,2020-7-22T03:11:43Z
2020-07-22T01:13:59Z,42.805,6.029,13.2983,4.60010,2470.124,2020-7-22T03:14:46Z
2020-07-22T01:17:02Z,42.805,6.029,13.2996,4.60015,2470.11,2020-7-22T03:17:49Z
2020-07-22T01:20:05Z,42.805,6.029,13.2993,4.60040,2470.1,2020-7-22T03:20:53Z
2020-07-22T01:23:09Z,42.805,6.029,13.3015,4.60031,2470.11,2020-7-22T03:23:56Z
2020-07-22T01:26:12Z,42.805,6.029,13.3002,4.60022,2470.087,2020-7-22T03:26:59Z
2020-07-22T01:29:15Z,42.805,6.029,13.3009,4.60043,2470.087,2020-7-22T03:30:02Z
2020-07-22T01:32:18Z,42.805,6.029,13.3001,4.60056,2470.087,2020-7-22T03:33:06Z
2020-07-22T01:35:21Z,42.805,6.029,13.2999,4.60046,2470.1,2020-7-22T03:36:09Z
2020-07-22T01:38:25Z,42.805,6.029,13.2995,4.60041,2470.087,2020-7-22T03:39:12Z
2020-07-22T01:41:28Z,42.805,6.029,13.2996,4.60032,2470.087,2020-7-22T03:42:15Z
2020-07-22T01:44:31Z,42.805,6.029,13.2993,4.60043,2470.087,2020-7-22T03:45:18Z
2020-07-22T01:47:34Z,42.805,6.029,13.2992,4.60031,2470.077,2020-7-22T03:48:22Z
2020-07-22T01:50:38Z,42.805,6.029,13.2991,4.60019,2470.063,2020-7-22T03:51:25Z
2020-07-22T01:53:41Z,42.805,6.029,13.2995,4.60025,2470.077,2020-7-22T03:54:28Z
2020-07-22T01:56:44Z,42.805,6.029,13.2983,4.60013,2470.077,2020-7-22T03:57:31Z
2020-07-22T01:59:47Z,42.805,6.029,13.2982,4.60036,2470.063,2020-7-22T04:00:34Z
2020-07-22T02:02:50Z,42.805,6.029,13.2982,4.60017,2470.1,2020-7-22T04:03:38Z
2020-07-22T02:05:54Z,42.805,6.029,13.2984,4.60026,2470.11,2020-7-22T04:06:41Z
2020-07-22T02:08:57Z,42.805,6.029,13.2982,4.60015,2470.087,2020-7-22T04:09:44Z
2020-07-22T02:12:00Z,42.805,6.029,13.2984,4.60021,2470.04,2020-7-22T04:12:47Z
2020-07-22T02:15:03Z,42.805,6.029,13.2989,4.60030,2470.087,2020-7-22T04:15:51Z
2020-07-22T02:18:07Z,42.805,6.029,13.3000,4.60038,2470.1,2020-7-22T04:18:54Z
2020-07-22T02:21:10Z,42.805,6.029,13.3018,4.60029,2470.1,2020-7-22T04:21:57Z
2020-07-22T02:24:13Z,42.805,6.029,13.3012,4.60041,2470.053,2020-7-22T04:25:00Z
2020-07-22T02:27:16Z,42.805,6.029,13.3000,4.60064,2470.1,2020-7-22T04:28:04Z
2020-07-22T02:30:20Z,42.805,6.029,13.3019,4.60031,2470.063,2020-7-22T04:31:07Z
2020-07-22T02:33:23Z,42.805,6.029,13.3012,4.60029,2470.077,2020-7-22T04:34:10Z
2020-07-22T02:36:26Z,42.805,6.029,13.3015,4.60062,2470.063,2020-7-22T04:37:13Z
2020-07-22T02:39:29Z,42.805,6.029,13.3027,4.60046,2470.063,2020-7-22T04:40:17Z
2020-07-22T02:42:32Z,42.805,6.029,13.3040,4.60052,2470.077,2020-7-22T04:43:20Z
2020-07-22T02:45:36Z,42.805,6.029,13.3016,4.60072,2470.063,2020-7-22T04:46:23Z
2020-07-22T02:48:39Z,42.805,6.029,13.3007,4.60042,2470.04,2020-7-22T04:49:26Z
2020-07-22T02:51:42Z,42.805,6.029,13.3011,4.60041,2470.053,2020-7-22T04:52:30Z
2020-07-22T02:54:46Z,42.805,6.029,13.3006,4.60037,2470.03,2020-7-22T04:55:33Z
2020-07-22T02:57:49Z,42.805,6.029,13.3025,4.60029,2470.053,2020-7-22T04:58:36Z
2020-07-22T03:00:52Z,42.805,6.029,13.3014,4.60058,2470.04,2020-7-22T05:01:39Z
2020-07-22T03:03:55Z,42.805,6.029,13.3029,4.60072,2470.04,2020-7-22T05:04:43Z
2020-07-22T03:06:59Z,42.805,6.029,13.3041,4.60049,2470.063,2020-7-22T05:07:46Z
2020-07-22T03:10:02Z,42.805,6.029,13.3030,4.60049,2470.053,2020-7-22T05:10:49Z
2020-07-22T03:13:05Z,42.805,6.029,13.3029,4.60029,2470.053,2020-7-22T05:13:53Z
2020-07-22T03:16:09Z,42.805,6.029,13.3027,4.60052,2470.053,2020-7-22T05:16:56Z
2020-07-22T03:19:12Z,42.805,6.029,13.3016,4.60062,2470.053,2020-7-22T05:19:59Z
2020-07-22T03:22:15Z,42.805,6.029,13.3028,4.60049,2470.077,2020-7-22T05:23:02Z
2020-07-22T03:25:18Z,42.805,6.029,13.3036,4.60055,2470.04,2020-7-22T05:26:06Z
2020-07-22T03:28:22Z,42.805,6.029,13.3024,4.60064,2470.077,2020-7-22T05:29:09Z
2020-07-22T03:31:25Z,42.805,6.029,13.3004,4.60039,2470.063,2020-7-22T05:32:12Z
2020-07-22T03:34:28Z,42.805,6.029,13.3008,4.60036,2470.04,2020-7-22T05:35:15Z
2020-07-22T03:37:31Z,42.805,6.029,13.3013,4.60056,2470.017,2020-7-22T05:38:19Z
2020-07-22T03:40:35Z,42.805,6.029,13.3025,4.60046,2470.03,2020-7-22T05:41:22Z
2020-07-22T03:43:38Z,42.805,6.029,13.3007,4.60047,2470.053,2020-7-22T05:44:25Z
2020-07-22T03:46:41Z,42.805,6.029,13.2996,4.60052,2470.053,2020-7-22T05:47:28Z
2020-07-22T03:49:44Z,42.805,6.029,13.3004,4.60048,2470.053,2020-7-22T05:50:31Z
2020-07-22T03:52:47Z,42.805,6.029,13.3019,4.60053,2470.077,2020-7-22T05:53:35Z
2020-07-22T03:55:51Z,42.805,6.029,13.3004,4.60043,2470.053,2020-7-22T05:56:38Z
2020-07-22T03:58:54Z,42.805,6.029,13.2994,4.60015,2470.077,2020-7-22T05:59:42Z
2020-07-22T04:01:57Z,42.805,6.029,13.2986,4.60005,2470.04,2020-7-22T06:02:45Z
2020-07-22T04:05:01Z,42.805,6.029,13.2987,4.60033,2470.087,2020-7-22T06:05:48Z
2020-07-22T04:08:04Z,42.805,6.029,13.2994,4.60049,2470.053,2020-7-22T06:08:51Z
2020-07-22T04:11:07Z,42.805,6.029,13.2996,4.60032,2470.03,2020-7-22T06:11:54Z
2020-07-22T04:14:10Z,42.805,6.029,13.2998,4.60042,2470.053,2020-7-22T06:14:58Z
2020-07-22T04:17:14Z,42.805,6.029,13.3015,4.60099,2470.063,2020-7-22T06:18:01Z
2020-07-22T04:20:17Z,42.805,6.029,13.3023,4.60059,2470.063,2020-7-22T06:21:04Z
2020-07-22T04:23:20Z,42.805,6.029,13.3023,4.60054,2470.063,2020-7-22T06:24:07Z
2020-07-22T04:26:23Z,42.805,6.029,13.2988,4.60096,2470.017,2020-7-22T06:27:11Z
2020-07-22T04:29:27Z,42.805,6.029,13.3011,4.60040,2470.053,2020-7-22T06:30:14Z
2020-07-22T04:32:30Z,42.805,6.029,13.2994,4.60066,2470.04,2020-7-22T06:33:17Z
2020-07-22T04:35:33Z,42.805,6.029,13.3031,4.60022,2470.026,2020-7-22T06:36:20Z
2020-07-22T04:38:36Z,42.805,6.029,13.3034,4.60053,2470.063,2020-7-22T06:39:24Z
2020-07-22T04:41:40Z,42.805,6.029,13.3040,4.60035,2470.077,2020-7-22T06:42:27Z
2020-07-22T04:44:43Z,42.805,6.029,13.3045,4.60047,2470.077,2020-7-22T06:45:30Z
2020-07-22T04:47:46Z,42.805,6.029,13.3032,4.60095,2470.077,2020-7-22T06:48:33Z
2020-07-22T04:50:50Z,42.805,6.029,13.3050,4.60062,2470.087,2020-7-22T06:51:37Z
2020-07-22T04:53:53Z,42.805,6.029,13.3023,4.60069,2470.077,2020-7-22T06:54:40Z
2020-07-22T04:56:56Z,42.805,6.029,13.3012,4.60060,2470.087,2020-7-22T06:57:43Z
2020-07-22T04:59:59Z,42.805,6.029,13.3021,4.60049,2470.11,2020-7-22T07:00:47Z
2020-07-22T05:03:03Z,42.805,6.029,13.3033,4.60066,2470.1,2020-7-22T07:03:50Z
2020-07-22T05:06:06Z,42.805,6.029,13.3027,4.60055,2470.1,2020-7-22T07:06:53Z
2020-07-22T05:09:09Z,42.805,6.029,13.3055,4.60057,2470.087,2020-7-22T07:09:56Z
2020-07-22T05:12:12Z,42.805,6.029,13.3033,4.60008,2470.11,2020-7-22T07:12:59Z
2020-07-22T05:15:16Z,42.805,6.029,13.3030,4.60051,2470.063,2020-7-22T07:16:03Z
2020-07-22T05:18:19Z,42.805,6.029,13.3029,4.60051,2470.1,2020-7-22T07:19:06Z
2020-07-22T05:21:22Z,42.805,6.029,13.3020,4.60051,2470.124,2020-7-22T07:22:09Z
2020-07-22T05:24:25Z,42.805,6.029,13.3043,4.60054,2470.077,2020-7-22T07:25:12Z
2020-07-22T05:27:28Z,42.805,6.029,13.3045,4.60102,2470.087,2020-7-22T07:28:16Z
2020-07-22T05:30:32Z,42.805,6.029,13.3058,4.60081,2470.124,2020-7-22T07:31:19Z
2020-07-22T05:33:35Z,42.805,6.029,13.3010,4.60032,2470.124,2020-7-22T07:34:22Z
2020-07-22T05:36:39Z,42.805,6.029,13.3034,4.60069,2470.124,2020-7-22T07:37:26Z
2020-07-22T05:39:42Z,42.805,6.029,13.3021,4.60054,2470.133,2020-7-22T07:40:29Z
2020-07-22T05:42:45Z,42.805,6.029,13.3016,4.60035,2470.1,2020-7-22T07:43:32Z
2020-07-22T05:45:48Z,42.805,6.029,13.3026,4.60053,2470.133,2020-7-22T07:46:36Z
2020-07-22T05:48:52Z,42.805,6.029,13.3013,4.60023,2470.124,2020-7-22T07:49:39Z
2020-07-22T05:51:55Z,42.805,6.029,13.3016,4.60053,2470.124,2020-7-22T07:52:42Z
2020-07-22T05:54:58Z,42.805,6.029,13.3028,4.60064,2470.1,2020-7-22T07:55:45Z
2020-07-22T05:58:01Z,42.805,6.029,13.3043,4.60044,2470.171,2020-7-22T07:58:49Z
2020-07-22T06:01:05Z,42.805,6.029,13.3039,4.60089,2470.147,2020-7-22T08:01:52Z
2020-07-22T06:04:08Z,42.805,6.029,13.2993,4.60045,2470.147,2020-7-22T08:04:55Z
2020-07-22T06:07:11Z,42.805,6.029,13.3034,4.60036,2470.133,2020-7-22T08:07:58Z
2020-07-22T06:10:14Z,42.805,6.029,13.3016,4.60052,2470.171,2020-7-22T08:11:02Z
2020-07-22T06:13:18Z,42.805,6.029,13.3044,4.60040,2470.133,2020-7-22T08:14:05Z
2020-07-22T06:16:21Z,42.805,6.029,13.3011,4.60055,2470.147,2020-7-22T08:17:08Z
2020-07-22T06:19:24Z,42.805,6.029,13.3023,4.60067,2470.147,2020-7-22T08:20:11Z
2020-07-22T06:22:27Z,42.805,6.029,13.3019,4.60067,2470.11,2020-7-22T08:23:15Z
2020-07-22T06:25:31Z,42.805,6.029,13.3047,4.60046,2470.194,2020-7-22T08:26:18Z
2020-07-22T06:28:34Z,42.805,6.029,13.3057,4.60054,2470.147,2020-7-22T08:29:21Z
2020-07-22T06:31:37Z,42.805,6.029,13.3047,4.60052,2470.171,2020-7-22T08:32:24Z
2020-07-22T06:34:40Z,42.805,6.029,13.3042,4.60017,2470.171,2020-7-22T08:35:28Z
2020-07-22T06:37:44Z,42.805,6.029,13.3037,4.60058,2470.18,2020-7-22T08:38:31Z
2020-07-22T06:40:47Z,42.805,6.029,13.3043,4.60062,2470.203,2020-7-22T08:41:34Z
2020-07-22T06:43:50Z,42.805,6.029,13.3037,4.60061,2470.171,2020-7-22T08:44:37Z
2020-07-22T06:46:53Z,42.805,6.029,13.3026,4.60055,2470.194,2020-7-22T08:47:41Z
2020-07-22T06:49:57Z,42.805,6.029,13.3033,4.60045,2470.171,2020-7-22T08:50:44Z
2020-07-22T06:53:00Z,42.805,6.029,13.2993,4.60058,2470.194,2020-7-22T08:53:47Z
2020-07-22T06:56:03Z,42.805,6.029,13.3004,4.60072,2470.194,2020-7-22T08:56:50Z
2020-07-22T06:59:06Z,42.805,6.029,13.2999,4.60038,2470.18,2020-7-22T08:59:54Z
2020-07-22T07:02:10Z,42.805,6.029,13.2989,4.60062,2470.156,2020-7-22T09:02:57Z
2020-07-22T07:05:13Z,42.805,6.029,13.3005,4.60063,2470.171,2020-7-22T09:06:00Z
2020-07-22T07:08:16Z,42.805,6.029,13.3019,4.60038,2470.156,2020-7-22T09:09:03Z
2020-07-22T07:11:19Z,42.805,6.029,13.3032,4.60064,2470.194,2020-7-22T09:12:07Z
2020-07-22T07:14:23Z,42.805,6.029,13.2991,4.60060,2470.156,2020-7-22T09:15:10Z
2020-07-22T07:17:26Z,42.805,6.029,13.2996,4.60040,2470.166,2020-7-22T09:18:13Z
2020-07-22T07:20:29Z,42.805,6.029,13.2990,4.60059,2470.171,2020-7-22T09:21:16Z
2020-07-22T07:23:32Z,42.805,6.029,13.2994,4.60058,2470.18,2020-7-22T09:24:20Z
2020-07-22T07:26:36Z,42.805,6.029,13.3002,4.60069,2470.217,2020-7-22T09:27:23Z
2020-07-22T07:29:39Z,42.805,6.029,13.3009,4.60058,2470.217,2020-7-22T09:30:26Z
2020-07-22T07:32:42Z,42.805,6.029,13.3026,4.60047,2470.217,2020-7-22T09:33:29Z
2020-07-22T07:35:45Z,42.805,6.029,13.3008,4.60054,2470.18,2020-7-22T09:36:33Z
2020-07-22T07:38:49Z,42.805,6.029,13.3014,4.60029,2470.203,2020-7-22T09:39:36Z
2020-07-22T07:41:52Z,42.805,6.029,13.3029,4.60039,2470.217,2020-7-22T09:42:39Z
2020-07-22T07:44:55Z,42.805,6.029,13.3043,4.60043,2470.203,2020-7-22T09:45:42Z
2020-07-22T07:47:58Z,42.805,6.029,13.3039,4.60070,2470.18,2020-7-22T09:48:46Z
2020-07-22T07:51:01Z,42.805,6.029,13.3020,4.60046,2470.18,2020-7-22T09:51:49Z
2020-07-22T07:54:05Z,42.805,6.029,13.3026,4.60032,2470.171,2020-7-22T09:54:52Z
2020-07-22T07:57:08Z,42.805,6.029,13.3013,4.60052,2470.18,2020-7-22T09:57:55Z
2020-07-22T08:00:11Z,42.805,6.029,13.3011,4.60055,2470.18,2020-7-22T10:00:59Z
2020-07-22T08:03:14Z,42.805,6.029,13.3021,4.60029,2470.156,2020-7-22T10:04:02Z
2020-07-22T08:06:18Z,42.805,6.029,13.3019,4.60039,2470.147,2020-7-22T10:07:05Z
2020-07-22T08:09:21Z,42.805,6.029,13.3007,4.60058,2470.18,2020-7-22T10:10:08Z
2020-07-22T08:12:24Z,42.805,6.029,13.3019,4.60026,2470.171,2020-7-22T10:13:11Z
2020-07-22T08:15:27Z,42.805,6.029,13.3031,4.60041,2470.18,2020-7-22T10:16:15Z
2020-07-22T08:18:31Z,42.805,6.029,13.3019,4.60047,2470.194,2020-7-22T10:19:18Z
2020-07-22T08:21:34Z,42.805,6.029,13.3006,4.60050,2470.194,2020-7-22T10:22:21Z
2020-07-22T08:24:37Z,42.805,6.029,13.3007,4.60052,2470.24,2020-7-22T10:25:24Z
2020-07-22T08:27:40Z,42.805,6.029,13.3000,4.60070,2470.18,2020-7-22T10:28:28Z
2020-07-22T08:30:43Z,42.805,6.029,13.3011,4.60047,2470.194,2020-7-22T10:31:31Z
2020-07-22T08:33:47Z,42.805,6.029,13.3021,4.60046,2470.194,2020-7-22T10:34:34Z
2020-07-22T08:36:50Z,42.805,6.029,13.3036,4.60047,2470.18,2020-7-22T10:37:37Z
2020-07-22T08:39:53Z,42.805,6.029,13.3021,4.60021,2470.18,2020-7-22T10:40:40Z
2020-07-22T08:42:56Z,42.805,6.029,13.3000,4.60016,2470.156,2020-7-22T10:43:44Z
2020-07-22T08:46:00Z,42.805,6.029,13.3013,4.60034,2470.147,2020-7-22T10:46:47Z
2020-07-22T08:49:03Z,42.805,6.029,13.3012,4.60044,2470.171,2020-7-22T10:49:50Z
2020-07-22T08:52:06Z,42.805,6.029,13.3015,4.60056,2470.171,2020-7-22T10:52:53Z
2020-07-22T08:55:09Z,42.805,6.029,13.3015,4.60062,2470.18,2020-7-22T10:55:57Z
2020-07-22T08:58:13Z,42.805,6.029,13.3005,4.60026,2470.156,2020-7-22T10:59:00Z
2020-07-22T09:01:16Z,42.805,6.029,13.3011,4.60041,2470.147,2020-7-22T11:02:03Z
2020-07-22T09:04:19Z,42.805,6.029,13.3030,4.60031,2470.194,2020-7-22T11:05:06Z
2020-07-22T09:07:22Z,42.805,6.029,13.3011,4.60039,2470.194,2020-7-22T11:08:09Z
2020-07-22T09:10:25Z,42.805,6.029,13.3031,4.60036,2470.156,2020-7-22T11:11:13Z
2020-07-22T09:13:29Z,42.805,6.029,13.3002,4.60043,2470.156,2020-7-22T11:14:16Z
2020-07-22T09:16:32Z,42.805,6.029,13.3020,4.60036,2470.171,2020-7-22T11:17:19Z
2020-07-22T09:19:35Z,42.805,6.029,13.3024,4.60033,2470.156,2020-7-22T11:20:22Z
2020-07-22T09:22:38Z,42.805,6.029,13.3031,4.60035,2470.156,2020-7-22T11:23:26Z
2020-07-22T09:25:41Z,42.805,6.029,13.3001,4.60069,2470.171,2020-7-22T11:26:29Z
2020-07-22T09:28:45Z,42.805,6.029,13.3000,4.60085,2470.156,2020-7-22T11:29:32Z
2020-07-22T09:31:48Z,42.805,6.029,13.3021,4.60044,2470.171,2020-7-22T11:32:35Z
2020-07-22T09:34:51Z,42.805,6.029,13.3032,4.60047,2470.147,2020-7-22T11:35:38Z
2020-07-22T09:37:54Z,42.805,6.029,13.3028,4.60039,2470.171,2020-7-22T11:38:42Z
2020-07-22T09:40:58Z,42.805,6.029,13.3034,4.60052,2470.147,2020-7-22T11:41:45Z
2020-07-22T09:44:01Z,42.805,6.029,13.3002,4.60045,2470.133,2020-7-22T11:44:48Z
2020-07-22T09:47:04Z,42.805,6.029,13.3002,4.60057,2470.133,2020-7-22T11:47:51Z
2020-07-22T09:50:07Z,42.805,6.029,13.2990,4.60078,2470.11,2020-7-22T11:50:55Z
2020-07-22T09:53:11Z,42.805,6.029,13.2993,4.60040,2470.147,2020-7-22T11:53:58Z
2020-07-22T09:56:14Z,42.805,6.029,13.2990,4.60053,2470.133,2020-7-22T11:57:01Z
2020-07-22T09:59:17Z,42.805,6.029,13.3005,4.60061,2470.119,2020-7-22T12:00:04Z
2020-07-22T10:02:20Z,42.805,6.029,13.2991,4.60077,2470.171,2020-7-22T12:03:08Z
2020-07-22T10:05:24Z,42.805,6.029,13.2993,4.60069,2470.11,2020-7-22T12:06:11Z
2020-07-22T10:08:27Z,42.805,6.029,13.2986,4.60046,2470.11,2020-7-22T12:09:14Z
2020-07-22T10:11:30Z,42.805,6.029,13.2998,4.60035,2470.11,2020-7-22T12:12:18Z
2020-07-22T10:14:33Z,42.805,6.029,13.2996,4.60050,2470.1,2020-7-22T12:15:21Z
2020-07-22T10:17:37Z,42.805,6.029,13.3000,4.60057,2470.133,2020-7-22T12:18:24Z
2020-07-22T10:20:40Z,42.805,6.029,13.3001,4.60064,2470.133,2020-7-22T12:21:27Z
2020-07-22T10:23:43Z,42.805,6.029,13.3000,4.60045,2470.087,2020-7-22T12:24:31Z
2020-07-22T10:26:47Z,42.805,6.029,13.2998,4.60066,2470.124,2020-7-22T12:27:34Z
2020-07-22T10:29:50Z,42.805,6.029,13.3011,4.60068,2470.133,2020-7-22T12:30:37Z
2020-07-22T10:32:53Z,42.805,6.029,13.3002,4.60054,2470.11,2020-7-22T12:33:41Z
2020-07-22T10:35:57Z,42.805,6.029,13.3009,4.60064,2470.124,2020-7-22T12:36:44Z
2020-07-22T10:39:00Z,42.805,6.029,13.3007,4.60054,2470.124,2020-7-22T12:39:47Z
2020-07-22T10:42:03Z,42.805,6.029,13.3011,4.60055,2470.133,2020-7-22T12:42:50Z
2020-07-22T10:45:06Z,42.805,6.029,13.3024,4.60046,2470.087,2020-7-22T12:45:54Z
2020-07-22T10:48:09Z,42.805,6.029,13.3013,4.60062,2470.1,2020-7-22T12:48:57Z
2020-07-22T10:51:13Z,42.805,6.029,13.3021,4.60046,2470.11,2020-7-22T12:52:00Z
2020-07-22T10:54:16Z,42.805,6.029,13.3023,4.60042,2470.087,2020-7-22T12:55:03Z
2020-07-22T10:57:19Z,42.805,6.029,13.3001,4.60034,2470.124,2020-7-22T12:58:06Z
2020-07-22T11:00:22Z,42.805,6.029,13.3000,4.60077,2470.1,2020-7-22T13:01:10Z
2020-07-22T11:03:26Z,42.805,6.029,13.2994,4.60029,2470.1,2020-7-22T13:04:13Z
2020-07-22T11:06:29Z,42.805,6.029,13.2984,4.60054,2470.063,2020-7-22T13:07:16Z
2020-07-22T11:09:32Z,42.805,6.029,13.2988,4.60041,2470.1,2020-7-22T13:10:19Z
2020-07-22T11:12:35Z,42.805,6.029,13.2990,4.60062,2470.087,2020-7-22T13:13:23Z
2020-07-22T11:15:39Z,42.805,6.029,13.2986,4.60079,2470.087,2020-7-22T13:16:26Z
2020-07-22T11:18:42Z,42.805,6.029,13.2986,4.60072,2470.077,2020-7-22T13:19:29Z
2020-07-22T11:21:45Z,42.805,6.029,13.3001,4.60046,2470.1,2020-7-22T13:22:32Z
2020-07-22T11:24:48Z,42.805,6.029,13.3001,4.60024,2470.1,2020-7-22T13:25:36Z
2020-07-22T11:27:52Z,42.805,6.029,13.2999,4.60070,2470.077,2020-7-22T13:28:39Z
2020-07-22T11:30:55Z,42.805,6.029,13.3000,4.60061,2470.063,2020-7-22T13:31:42Z
2020-07-22T11:33:58Z,42.805,6.029,13.3001,4.60064,2470.053,2020-7-22T13:34:46Z
2020-07-22T11:37:01Z,42.805,6.029,13.2984,4.60045,2470.077,2020-7-22T13:37:49Z
2020-07-22T11:40:05Z,42.805,6.029,13.2986,4.60037,2470.063,2020-7-22T13:40:52Z
2020-07-22T11:43:08Z,42.805,6.029,13.2993,4.60054,2470.077,2020-7-22T13:43:55Z
2020-07-22T11:46:11Z,42.805,6.029,13.2988,4.60062,2470.03,2020-7-22T13:46:58Z
2020-07-22T11:49:14Z,42.805,6.029,13.2998,4.60052,2470.077,2020-7-22T13:50:02Z
2020-07-22T11:52:18Z,42.805,6.029,13.2997,4.60052,2470.063,2020-7-22T13:53:05Z
2020-07-22T11:55:21Z,42.805,6.029,13.2981,4.60035,2470.04,2020-7-22T13:56:08Z
2020-07-22T11:58:24Z,42.805,6.029,13.2986,4.60014,2470.077,2020-7-22T13:59:12Z
2020-07-22T12:01:27Z,42.805,6.029,13.2985,4.60023,2470.077,2020-7-22T14:02:15Z
2020-07-22T12:04:31Z,42.805,6.029,13.2991,4.60031,2470.017,2020-7-22T14:05:18Z
2020-07-22T12:07:34Z,42.805,6.029,13.2986,4.60026,2470.04,2020-7-22T14:08:21Z
2020-07-22T12:10:37Z,42.805,6.029,13.2989,4.60042,2470.077,2020-7-22T14:11:25Z
2020-07-22T12:13:41Z,42.805,6.029,13.2984,4.60043,2470.04,2020-7-22T14:14:28Z
2020-07-22T12:16:44Z,42.805,6.029,13.2991,4.60026,2470.04,2020-7-22T14:17:31Z
2020-07-22T12:19:47Z,42.805,6.029,13.2989,4.60038,2470.03,2020-7-22T14:20:34Z
2020-07-22T12:22:50Z,42.805,6.029,13.2991,4.60036,2469.993,2020-7-22T14:23:38Z
2020-07-22T12:25:53Z,42.805,6.029,13.2999,4.60037,2470.04,2020-7-22T14:26:41Z
2020-07-22T12:28:57Z,42.805,6.029,13.2985,4.60023,2470.007,2020-7-22T14:29:44Z
2020-07-22T12:32:00Z,42.805,6.029,13.2987,4.60021,2470.03,2020-7-22T14:32:47Z
2020-07-22T12:35:03Z,42.805,6.029,13.2996,4.60028,2470.04,2020-7-22T14:35:51Z
2020-07-22T12:38:07Z,42.805,6.029,13.3003,4.60040,2470.03,2020-7-22T14:38:54Z
2020-07-22T12:41:10Z,42.805,6.029,13.3006,4.60045,2470.017,2020-7-22T14:41:57Z
2020-07-22T12:44:13Z,42.805,6.029,13.3002,4.60051,2470.04,2020-7-22T14:45:00Z
2020-07-22T12:47:16Z,42.805,6.029,13.2993,4.60039,2470.017,2020-7-22T14:48:04Z
2020-07-22T12:50:19Z,42.805,6.029,13.2996,4.60051,2470.017,2020-7-22T14:51:07Z
2020-07-22T12:53:23Z,42.805,6.029,13.3000,4.60046,2469.993,2020-7-22T14:54:10Z
2020-07-22T12:56:26Z,42.805,6.029,13.2993,4.60022,2470.017,2020-7-22T14:57:13Z
2020-07-22T12:59:29Z,42.805,6.029,13.2999,4.60021,2470.03,2020-7-22T15:00:16Z
2020-07-22T13:02:32Z,42.805,6.029,13.2987,4.60031,2470.03,2020-7-22T15:03:20Z
2020-07-22T13:05:36Z,42.805,6.029,13.2990,4.60014,2470.04,2020-7-22T15:06:23Z
2020-07-22T13:08:39Z,42.805,6.029,13.2995,4.60034,2469.993,2020-7-22T15:09:26Z
2020-07-22T13:11:42Z,42.805,6.029,13.2992,4.60021,2470.003,2020-7-22T15:12:30Z
2020-07-22T13:14:46Z,42.805,6.029,13.2991,4.60012,2469.984,2020-7-22T15:15:33Z
2020-07-22T13:17:49Z,42.805,6.029,13.2987,4.60015,2469.993,2020-7-22T15:18:36Z
2020-07-22T13:20:52Z,42.805,6.029,13.2984,4.60011,2470.007,2020-7-22T15:21:39Z
2020-07-22T13:23:55Z,42.805,6.029,13.2983,4.60033,2470.03,2020-7-22T15:24:43Z
2020-07-22T13:26:59Z,42.805,6.029,13.2989,4.60017,2469.993,2020-7-22T15:27:46Z
2020-07-22T13:30:02Z,42.805,6.029,13.2996,4.60057,2470.03,2020-7-22T15:30:49Z
2020-07-22T13:33:05Z,42.805,6.029,13.2992,4.60034,2469.993,2020-7-22T15:33:52Z
2020-07-22T13:36:08Z,42.805,6.029,13.2999,4.60038,2469.97,2020-7-22T15:36:56Z
2020-07-22T13:39:12Z,42.805,6.029,13.2982,4.60024,2469.97,2020-7-22T15:39:59Z
2020-07-22T13:42:15Z,42.805,6.029,13.2986,4.60016,2470.03,2020-7-22T15:43:02Z
2020-07-22T13:45:18Z,42.805,6.029,13.2983,4.60019,2469.984,2020-7-22T15:46:05Z
2020-07-22T13:48:22Z,42.805,6.029,13.2992,4.60028,2469.97,2020-7-22T15:49:09Z
2020-07-22T13:51:25Z,42.805,6.029,13.2985,4.60010,2470.03,2020-7-22T15:52:12Z
2020-07-22T13:54:28Z,42.805,6.029,13.2995,4.60010,2469.984,2020-7-22T15:55:15Z
2020-07-22T13:57:31Z,42.805,6.029,13.2989,4.60021,2469.984,2020-7-22T15:58:18Z
2020-07-22T14:00:34Z,42.805,6.029,13.2988,4.60011,2469.947,2020-7-22T16:01:22Z
2020-07-22T14:03:38Z,42.805,6.029,13.2983,4.60005,2469.984,2020-7-22T16:04:25Z
2020-07-22T14:06:41Z,42.805,6.029,13.2983,4.60031,2470.007,2020-7-22T16:07:28Z
2020-07-22T14:09:44Z,42.805,6.029,13.3000,4.60022,2469.96,2020-7-22T16:10:32Z
2020-07-22T14:12:47Z,42.805,6.029,13.2986,4.60014,2469.97,2020-7-22T16:13:35Z
2020-07-22T14:15:51Z,42.805,6.029,13.2991,4.60017,2469.947,2020-7-22T16:16:38Z
2020-07-22T14:18:54Z,42.805,6.029,13.2982,4.60014,2469.993,2020-7-22T16:19:41Z
2020-07-22T14:21:57Z,42.805,6.029,13.2988,4.60009,2469.993,2020-7-22T16:22:45Z
2020-07-22T14:25:01Z,42.805,6.029,13.3000,4.60041,2469.97,2020-7-22T16:25:48Z
2020-07-22T14:28:04Z,42.805,6.029,13.3001,4.60023,2469.96,2020-7-22T16:28:51Z
2020-07-22T14:31:07Z,42.805,6.029,13.2995,4.60049,2469.984,2020-7-22T16:31:54Z
2020-07-22T14:34:10Z,42.805,6.029,13.2983,4.60023,2469.97,2020-7-22T16:34:58Z
2020-07-22T14:37:14Z,42.805,6.029,13.2991,4.60019,2469.97,2020-7-22T16:38:01Z
2020-07-22T14:40:17Z,42.805,6.029,13.2990,4.60044,2469.984,2020-7-22T16:41:04Z
2020-07-22T14:43:20Z,42.805,6.029,13.3009,4.60019,2469.97,2020-7-22T16:44:07Z
2020-07-22T14:46:23Z,42.805,6.029,13.2993,4.60029,2469.993,2020-7-22T16:47:11Z
2020-07-22T14:49:27Z,42.805,6.029,13.2991,4.60014,2469.993,2020-7-22T16:50:14Z
2020-07-22T14:52:30Z,42.805,6.029,13.2990,4.60023,2469.984,2020-7-22T16:53:17Z
2020-07-22T14:55:33Z,42.805,6.029,13.2998,4.60027,2469.97,2020-7-22T16:56:20Z
2020-07-22T14:58:36Z,42.805,6.029,13.2984,4.60017,2469.993,2020-7-22T16:59:24Z
2020-07-22T15:01:39Z,42.805,6.029,13.2999,4.60041,2469.97,2020-7-22T17:02:27Z
2020-07-22T15:04:43Z,42.805,6.029,13.3002,4.60019,2470.007,2020-7-22T17:05:30Z
2020-07-22T15:07:46Z,42.805,6.029,13.2992,4.60011,2469.993,2020-7-22T17:08:33Z
2020-07-22T15:10:49Z,42.805,6.029,13.2982,4.60011,2469.97,2020-7-22T17:11:36Z
2020-07-22T15:13:52Z,42.805,6.029,13.2993,4.60026,2469.984,2020-7-22T17:14:40Z